Regional Weather Roundup
Issued by NWS State College, PA

Home | Current Version | Previous Version | Text Only | Print | Product List | Glossary Off
Versions: 1 2 3 4 5 6 7 8 9 10 11 12 13 14 15 16 17 18 19 20 21 22 23 24 25 26 27 28 29 30 31 32 33 34 35 36 37 38 39 40 41 42 43 44 45 46 47 48 49 50

000
ASUS41 KCTP 051703
RWRCTP

REGIONAL WEATHER ROUNDUP
NATIONAL WEATHER SERVICE STATE COLLEGE PA
100 PM EDT SUN JUL 05 2015

Note: "fair" indicates few or no clouds below 12,000 feet with no
significant weather and/or obstructions to visibility.

* = STATION THAT DOES NOT REPORT PRECIPITATION /E.G. RAIN...SNOW...ETC/
    THUNDER OR FOG.

PAZ002>004-007>009-013>016-020>023-029>032-051800-
WESTERN PENNSYLVANIA

CITY           SKY/WX    TMP DP  RH WIND       PRES   REMARKS
ERIE           MOSUNNY   76  54  46 N8        30.15F
MEADVILLE      SUNNY     76  56  49 E5        30.17F
FRANKLIN*      SUNNY     75  55  50 E6        30.19F
NEW CASTLE     FAIR      77  52  41 E3        30.16F
BEAVER COUNTY  NOT AVBL
BUTLER*        MOSUNNY   75  57  53 SE5       30.18F
PITTSBURGH INT CLOUDY    76  57  51 E6        30.15F
PITTSBURGH     SUNNY     78  56  46 CALM      30.15F
INDIANA*       SUNNY     75  59  57 W3        30.21S
LATROBE        MOSUNNY   77  63  61 N7        30.17S
WASHINGTON CO* NOT AVBL
$$

PAZ004>006-010>012-017>019-024>028-033>037-041-042-045-046-049>053-051800-
CENTRAL PENNSYLVANIA

CITY           SKY/WX    TMP DP  RH WIND       PRES   REMARKS
BRADFORD       MOSUNNY   75  53  46 CALM      30.20F
DUBOIS         MOSUNNY   76  52  43 E3        30.19S
CLEARFIELD     MOSUNNY   72  63  73 VRB3      30.20S
JOHNSTOWN      MOSUNNY   74  57  55 SW3       30.20S
ALTOONA        MOSUNNY   75  61  61 CALM      30.19S
STATE COLLEGE  SUNNY     72  63  73 CALM      30.19S
WILLIAMSPORT   MOSUNNY   76  59  55 CALM      30.15S
SELINSGROVE    PTSUNNY   70  61  73 CALM      30.19R
FT INDIANTOWN  PTSUNNY   75  65  71 S5        30.17S
CAPITAL CITY   CLOUDY    76  64  66 CALM      30.16S
HARRISBURG     CLOUDY    76  66  71 CALM      30.15S
YORK           PTSUNNY   76  65  68 CALM      30.16F
$$

PAZ038>040-043-044-047-048-054-055-060>062-067>071-051800-
EASTERN PENNSYLVANIA

CITY           SKY/WX    TMP DP  RH WIND       PRES   REMARKS
SCRANTON       MOSUNNY   76  60  57 VRB3      30.17F
MOUNT POCONO   MOSUNNY   74  51  44 VRB3      30.19S
ALLENTOWN      MOSUNNY   77  63  61 NW3       30.15F
QUAKERTOWN*    MOSUNNY   77  64  65 CALM      30.17S
READING        PTSUNNY   76  63  64 CALM      30.15F
LANCASTER      PTSUNNY   77  64  64 CALM      30.16S
COATESVILLE    CLOUDY    75  66  73 S3        30.17F
POTTSTOWN      MOSUNNY   76  66  71 VRB5      30.17S
BLUE BELL      MOSUNNY   79  64  61 CALM      30.15S
DOYLESTOWN     PTSUNNY   77  62  59 CALM      30.15S
WILLOW GROVE   NOT AVBL
NORTH PHILA    SUNNY     82  60  47 W5        30.15F
PHILADELPHIA   MOSUNNY   80  62  54 S7        30.14F
$$


USA.gov is the U.S. government's official web portal to all federal, state and local government web resources and services.